QPF
0.01 0.01 0.00 0.00 0.00 0.00 0.00 0.00 0.00 0.01 0.03 0.04 0.03 0.01 0.00 0.00 0.00 0.00 0.01 0.01 0.01 0.02 0.03 0.03 0.02 0.03 0.03 0.04 0.04 0.06 0.09 0.11 0.12 0.11 0.10 0.09 0.08 0.07 0.07 0.07 0.07 0.10 0.10 0.09
0.01 0.01 0.01 0.00 0.00 0.00 0.00 0.00 0.00 0.01 0.03 0.02 0.01 0.00 0.00 0.00 0.00 0.00 0.01 0.01 0.01 0.02 0.03 0.03 0.03 0.04 0.05 0.05 0.04 0.04 0.07 0.09 0.12 0.13 0.14 0.11 0.07 0.07 0.09 0.10 0.10 0.09 0.07 0.08
0.01 0.01 0.01 0.01 0.00 0.00 0.00 0.00 0.00 0.01 0.02 0.01 0.01 0.00 0.00 0.00 0.00 0.00 0.00 0.01 0.01 0.03 0.04 0.04 0.04 0.04 0.05 0.05 0.05 0.04 0.05 0.06 0.11 0.12 0.13 0.12 0.09 0.08 0.09 0.10 0.09 0.08 0.06 0.07
0.02 0.02 0.01 0.00 0.00 0.00 0.00 0.01 0.01 0.01 0.01 0.01 0.01 0.00 0.00 0.00 0.00 0.01 0.01 0.00 0.01 0.02 0.03 0.04 0.06 0.05 0.05 0.05 0.04 0.04 0.05 0.07 0.09 0.12 0.12 0.13 0.14 0.11 0.11 0.09 0.07 0.07 0.07 0.08
0.03 0.04 0.02 0.01 0.00 0.00 0.00 0.02 0.02 0.02 0.03 0.02 0.01 0.00 0.01 0.00 0.00 0.01 0.01 0.00 0.00 0.01 0.03 0.05 0.05 0.06 0.05 0.04 0.04 0.04 0.05 0.06 0.06 0.08 0.09 0.11 0.12 0.11 0.10 0.09 0.07 0.06 0.06 0.06
0.03 0.04 0.04 0.03 0.01 0.01 0.01 0.04 0.01 0.01 0.02 0.03 0.04 0.02 0.03 0.01 0.00 0.00 0.00 0.00 0.00 0.00 0.01 0.04 0.06 0.06 0.05 0.04 0.03 0.03 0.03 0.04 0.05 0.06 0.07 0.08 0.08 0.09 0.10 0.10 0.08 0.07 0.06 0.05
0.02 0.04 0.07 0.05 0.02 0.01 0.03 0.05 0.02 0.01 0.02 0.04 0.06 0.05 0.04 0.02 0.00 0.00 0.00 0.00 0.01 0.01 0.02 0.04 0.05 0.06 0.06 0.04 0.03 0.03 0.03 0.04 0.04 0.05 0.07 0.09 0.09 0.09 0.08 0.08 0.09 0.07 0.08 0.07
0.05 0.06 0.10 0.05 0.03 0.04 0.05 0.04 0.02 0.03 0.02 0.04 0.04 0.02 0.02 0.03 0.02 0.00 0.01 0.01 0.01 0.01 0.02 0.03 0.04 0.05 0.05 0.04 0.03 0.04 0.05 0.05 0.05 0.05 0.05 0.06 0.09 0.08 0.08 0.09 0.08 0.07 0.08 0.08
0.10 0.10 0.09 0.04 0.04 0.03 0.03 0.03 0.03 0.01 0.01 0.03 0.07 0.06 0.02 0.03 0.04 0.02 0.01 0.01 0.01 0.02 0.03 0.03 0.03 0.03 0.04 0.05 0.06 0.06 0.07 0.08 0.09 0.08 0.07 0.07 0.07 0.06 0.07 0.09 0.09 0.08 0.08 0.07
0.11 0.10 0.06 0.04 0.05 0.04 0.02 0.01 0.04 0.02 0.02 0.04 0.06 0.04 0.02 0.02 0.02 0.03 0.03 0.02 0.03 0.04 0.05 0.05 0.04 0.04 0.05 0.06 0.06 0.07 0.07 0.08 0.11 0.11 0.09 0.08 0.08 0.07 0.07 0.07 0.08 0.08 0.09 0.08
0.10 0.10 0.09 0.05 0.04 0.04 0.02 0.01 0.03 0.03 0.03 0.04 0.03 0.04 0.04 0.03 0.03 0.04 0.05 0.04 0.04 0.05 0.06 0.05 0.04 0.05 0.05 0.05 0.05 0.05 0.04 0.06 0.08 0.09 0.10 0.10 0.08 0.07 0.08 0.10 0.11 0.12 0.13 0.12
0.13 0.09 0.07 0.06 0.04 0.03 0.03 0.03 0.02 0.03 0.05 0.04 0.03 0.04 0.05 0.04 0.04 0.04 0.05 0.04 0.03 0.04 0.05 0.05 0.06 0.06 0.06 0.06 0.06 0.05 0.05 0.06 0.07 0.08 0.09 0.09 0.09 0.08 0.09 0.10 0.11 0.12 0.15 0.16
0.09 0.07 0.05 0.05 0.04 0.03 0.03 0.03 0.04 0.05 0.05 0.04 0.04 0.05 0.05 0.04 0.02 0.03 0.04 0.04 0.03 0.04 0.05 0.05 0.06 0.08 0.07 0.07 0.07 0.07 0.07 0.07 0.07 0.07 0.10 0.11 0.12 0.13 0.13 0.14 0.13 0.12 0.14 0.15
0.09 0.09 0.08 0.06 0.05 0.04 0.03 0.04 0.05 0.06 0.06 0.05 0.05 0.06 0.06 0.06 0.04 0.04 0.04 0.04 0.05 0.05 0.05 0.06 0.07 0.07 0.08 0.09 0.09 0.09 0.09 0.09 0.09 0.10 0.11 0.12 0.11 0.11 0.11 0.12 0.13 0.14 0.14 0.15
0.11 0.13 0.11 0.06 0.05 0.04 0.04 0.04 0.05 0.06 0.06 0.06 0.06 0.07 0.09 0.08 0.06 0.05 0.05 0.04 0.05 0.07 0.08 0.09 0.07 0.07 0.07 0.08 0.08 0.09 0.09 0.09 0.09 0.10 0.11 0.13 0.13 0.12 0.11 0.11 0.12 0.13 0.13 0.12
0.11 0.10 0.09 0.06 0.05 0.04 0.05 0.05 0.05 0.05 0.05 0.06 0.05 0.06 0.08 0.09 0.07 0.05 0.06 0.06 0.07 0.08 0.07 0.07 0.06 0.05 0.05 0.05 0.05 0.07 0.07 0.06 0.06 0.07 0.09 0.10 0.11 0.12 0.12 0.11 0.11 0.12 0.11 0.10
0.07 0.07 0.07 0.07 0.07 0.06 0.05 0.05 0.05 0.05 0.04 0.05 0.04 0.03 0.04 0.05 0.06 0.05 0.06 0.07 0.07 0.08 0.07 0.06 0.05 0.04 0.04 0.04 0.04 0.03 0.03 0.02 0.03 0.03 0.04 0.07 0.09 0.10 0.11 0.11 0.11 0.10 0.09 0.07
0.05 0.04 0.05 0.07 0.09 0.07 0.06 0.05 0.04 0.04 0.04 0.04 0.03 0.03 0.03 0.04 0.05 0.04 0.04 0.04 0.05 0.07 0.08 0.06 0.06 0.05 0.04 0.03 0.03 0.02 0.01 0.01 0.02 0.03 0.04 0.05 0.06 0.05 0.06 0.06 0.05 0.04 0.04 0.03
0.04 0.04 0.04 0.06 0.09 0.07 0.06 0.05 0.04 0.03 0.03 0.03 0.03 0.03 0.03 0.03 0.03 0.02 0.02 0.03 0.03 0.04 0.05 0.05 0.04 0.04 0.03 0.02 0.03 0.02 0.02 0.02 0.02 0.02 0.03 0.03 0.03 0.04 0.04 0.03 0.02 0.02 0.03 0.04
0.04 0.04 0.04 0.05 0.07 0.07 0.07 0.06 0.04 0.03 0.02 0.02 0.02 0.02 0.03 0.03 0.02 0.02 0.02 0.02 0.02 0.02 0.03 0.03 0.02 0.03 0.03 0.03 0.03 0.03 0.03 0.02 0.02 0.02 0.02 0.03 0.03 0.03 0.03 0.02 0.02 0.02 0.02 0.03
0.03 0.03 0.03 0.04 0.06 0.06 0.06 0.06 0.05 0.04 0.03 0.02 0.02 0.02 0.02 0.02 0.02 0.02 0.02 0.02 0.01 0.02 0.02 0.03 0.03 0.04 0.03 0.04 0.05 0.04 0.05 0.04 0.03 0.04 0.03 0.03 0.03 0.04 0.04 0.03 0.02 0.02 0.02 0.01
0.03 0.03 0.04 0.05 0.05 0.05 0.05 0.05 0.04 0.03 0.02 0.03 0.03 0.02 0.02 0.02 0.02 0.01 0.01 0.01 0.01 0.01 0.02 0.03 0.03 0.03 0.02 0.03 0.03 0.04 0.04 0.03 0.03 0.03 0.03 0.03 0.03 0.02 0.02 0.02 0.02 0.02 0.02 0.02
0.03 0.03 0.04 0.04 0.04 0.03 0.03 0.03 0.03 0.02 0.02 0.02 0.03 0.02 0.02 0.02 0.02 0.01 0.01 0.01 0.00 0.01 0.01 0.02 0.01 0.01 0.01 0.01 0.02 0.02 0.02 0.02 0.03 0.03 0.03 0.03 0.03 0.03 0.02 0.02 0.02 0.03 0.03 0.03
0.04 0.04 0.04 0.03 0.03 0.02 0.03 0.03 0.02 0.02 0.02 0.02 0.03 0.04 0.03 0.02 0.01 0.01 0.00 0.01 0.01 0.01 0.00 0.00 0.00 0.00 0.00 0.00 0.01 0.01 0.02 0.03 0.03 0.04 0.04 0.04 0.04 0.04 0.03 0.03 0.03 0.03 0.03 0.03
0.05 0.05 0.05 0.04 0.04 0.03 0.03 0.04 0.03 0.02 0.01 0.01 0.02 0.02 0.02 0.01 0.00 0.00 0.00 0.01 0.01 0.00 0.00 0.00 0.00 0.00 0.00 0.00 0.00 0.01 0.01 0.02 0.03 0.03 0.03 0.03 0.03 0.02 0.02 0.02 0.02 0.02 0.01 0.01
0.07 0.07 0.06 0.05 0.04 0.03 0.03 0.04 0.04 0.03 0.02 0.01 0.01 0.02 0.01 0.01 0.00 0.01 0.01 0.01 0.00 0.00 0.00 0.00 0.00 0.00 0.00 0.00 0.00 0.00 0.00 0.00 0.00 0.00 0.00 0.01 0.01 0.01 0.01 0.01 0.01 0.01 0.01 0.01
0.07 0.07 0.06 0.05 0.05 0.04 0.04 0.04 0.04 0.04 0.04 0.03 0.03 0.02 0.02 0.01 0.01 0.01 0.01 0.01 0.01 0.01 0.00 0.00 0.00 0.00 0.00 0.00 0.00 0.00 0.00 0.00 0.00 0.00 0.00 0.00 0.00 0.00 0.00 0.00 0.01 0.01 0.01 0.01
MSLP
1002.78 1002.61 1002.46 1002.34 1002.26 1002.24 1002.24 1002.26 1002.25 1002.21 1002.12 1001.99 1001.83 1001.69 1001.59 1001.57 1001.65 1001.84 1002.12 1002.46 1002.84 1003.21 1003.54 1003.81 1004.01 1004.14 1004.23 1004.30 1004.38 1004.49 1004.66 1004.89 1005.20 1005.57 1006.01 1006.50 1007.02 1007.58 1008.16 1008.75 1009.34 1009.92 1010.50 1011.04
1003.64 1003.29 1002.88 1002.46 1002.07 1001.73 1001.46 1001.27 1001.14 1001.06 1001.03 1001.04 1001.06 1001.13 1001.23 1001.39 1001.60 1001.86 1002.18 1002.52 1002.88 1003.22 1003.53 1003.78 1003.97 1004.10 1004.18 1004.24 1004.29 1004.37 1004.49 1004.68 1004.94 1005.28 1005.71 1006.20 1006.76 1007.37 1008.01 1008.66 1009.31 1009.95 1010.55 1011.13
1004.39 1003.87 1003.25 1002.57 1001.90 1001.28 1000.76 1000.37 1000.11 1000.00 1000.00 1000.11 1000.29 1000.53 1000.81 1001.13 1001.46 1001.82 1002.19 1002.56 1002.92 1003.26 1003.55 1003.80 1003.99 1004.12 1004.21 1004.26 1004.31 1004.36 1004.45 1004.61 1004.84 1005.15 1005.57 1006.07 1006.65 1007.29 1007.96 1008.65 1009.34 1010.00 1010.61 1011.18
1004.81 1004.18 1003.39 1002.52 1001.63 1000.80 1000.09 999.55 999.20 999.04 999.08 999.27 999.58 999.97 1000.41 1000.88 1001.34 1001.80 1002.24 1002.66 1003.04 1003.39 1003.69 1003.95 1004.14 1004.28 1004.37 1004.42 1004.45 1004.49 1004.56 1004.68 1004.88 1005.18 1005.58 1006.08 1006.66 1007.31 1008.00 1008.70 1009.38 1010.02 1010.61 1011.15
1004.79 1004.09 1003.21 1002.22 1001.21 1000.25 999.43 998.80 998.41 998.25 998.33 998.60 999.03 999.56 1000.15 1000.75 1001.35 1001.91 1002.43 1002.90 1003.32 1003.69 1004.01 1004.27 1004.46 1004.60 1004.68 1004.72 1004.73 1004.74 1004.78 1004.88 1005.05 1005.33 1005.71 1006.20 1006.77 1007.41 1008.09 1008.76 1009.41 1010.01 1010.54 1011.01
1004.34 1003.61 1002.71 1001.69 1000.64 999.66 998.82 998.19 997.81 997.69 997.83 998.20 998.74 999.40 1000.12 1000.85 1001.56 1002.23 1002.83 1003.36 1003.82 1004.21 1004.54 1004.79 1004.97 1005.09 1005.14 1005.15 1005.12 1005.10 1005.11 1005.17 1005.32 1005.57 1005.93 1006.40 1006.96 1007.58 1008.22 1008.86 1009.45 1009.98 1010.44 1010.82
1003.59 1002.87 1002.00 1001.03 1000.05 999.13 998.35 997.80 997.49 997.46 997.70 998.16 998.81 999.58 1000.42 1001.26 1002.07 1002.82 1003.49 1004.07 1004.56 1004.96 1005.27 1005.51 1005.65 1005.73 1005.73 1005.69 1005.61 1005.54 1005.51 1005.54 1005.66 1005.89 1006.24 1006.69 1007.23 1007.82 1008.43 1009.02 1009.55 1010.01 1010.39 1010.68
1002.77 1002.10 1001.31 1000.45 999.60 998.81 998.18 997.76 997.58 997.67 998.01 998.58 999.32 1000.18 1001.09 1002.01 1002.89 1003.69 1004.40 1005.01 1005.51 1005.91 1006.20 1006.39 1006.48 1006.49 1006.43 1006.32 1006.19 1006.06 1005.98 1005.98 1006.08 1006.29 1006.63 1007.07 1007.60 1008.18 1008.76 1009.31 1009.79 1010.19 1010.49 1010.70
1002.12 1001.53 1000.86 1000.16 999.48 998.89 998.44 998.19 998.16 998.37 998.82 999.46 1000.27 1001.18 1002.13 1003.09 1003.99 1004.82 1005.54 1006.15 1006.64 1007.00 1007.25 1007.38 1007.41 1007.35 1007.22 1007.04 1006.84 1006.67 1006.55 1006.51 1006.60 1006.81 1007.14 1007.59 1008.12 1008.69 1009.26 1009.79 1010.24 1010.60 1010.85 1011.02
1001.85 1001.36 1000.84 1000.33 999.85 999.47 999.21 999.13 999.25 999.57 1000.09 1000.79 1001.62 1002.53 1003.48 1004.42 1005.31 1006.12 1006.82 1007.40 1007.85 1008.17 1008.37 1008.44 1008.40 1008.27 1008.07 1007.83 1007.58 1007.36 1007.21 1007.17 1007.25 1007.47 1007.82 1008.28 1008.83 1009.41 1009.99 1010.52 1010.97 1011.31 1011.54 1011.67
1002.04 1001.67 1001.33 1001.01 1000.74 1000.55 1000.48 1000.56 1000.79 1001.19 1001.75 1002.44 1003.24 1004.11 1005.01 1005.89 1006.72 1007.48 1008.13 1008.67 1009.07 1009.34 1009.48 1009.50 1009.41 1009.22 1008.97 1008.69 1008.41 1008.17 1008.02 1007.98 1008.07 1008.31 1008.69 1009.18 1009.76 1010.36 1010.96 1011.51 1011.97 1012.32 1012.55 1012.68
1002.62 1002.41 1002.24 1002.11 1002.03 1002.03 1002.11 1002.31 1002.61 1003.05 1003.60 1004.25 1004.98 1005.77 1006.57 1007.36 1008.11 1008.79 1009.37 1009.85 1010.21 1010.43 1010.53 1010.51 1010.39 1010.17 1009.90 1009.61 1009.32 1009.10 1008.96 1008.95 1009.07 1009.35 1009.76 1010.29 1010.89 1011.53 1012.15 1012.72 1013.20 1013.57 1013.82 1013.96
1003.41 1003.36 1003.37 1003.42 1003.51 1003.66 1003.87 1004.14 1004.49 1004.92 1005.42 1006.00 1006.64 1007.32 1008.01 1008.70 1009.35 1009.95 1010.47 1010.89 1011.20 1011.40 1011.48 1011.44 1011.31 1011.10 1010.83 1010.56 1010.30 1010.11 1010.02 1010.05 1010.22 1010.53 1010.98 1011.54 1012.17 1012.83 1013.48 1014.06 1014.55 1014.94 1015.20 1015.35
1004.14 1004.27 1004.46 1004.68 1004.93 1005.20 1005.49 1005.81 1006.18 1006.58 1007.03 1007.53 1008.07 1008.64 1009.23 1009.82 1010.38 1010.90 1011.37 1011.75 1012.03 1012.21 1012.28 1012.26 1012.14 1011.95 1011.73 1011.50 1011.29 1011.16 1011.13 1011.21 1011.44 1011.80 1012.28 1012.87 1013.51 1014.18 1014.82 1015.40 1015.90 1016.28 1016.54 1016.69
1004.63 1004.94 1005.29 1005.66 1006.04 1006.41 1006.78 1007.14 1007.50 1007.88 1008.28 1008.71 1009.17 1009.66 1010.17 1010.68 1011.18 1011.65 1012.07 1012.43 1012.70 1012.87 1012.96 1012.95 1012.86 1012.72 1012.55 1012.38 1012.24 1012.18 1012.21 1012.36 1012.64 1013.04 1013.55 1014.15 1014.79 1015.45 1016.07 1016.63 1017.10 1017.46 1017.70 1017.84
1004.76 1005.23 1005.74 1006.25 1006.74 1007.20 1007.62 1008.02 1008.39 1008.76 1009.13 1009.53 1009.94 1010.39 1010.85 1011.32 1011.79 1012.23 1012.63 1012.97 1013.24 1013.42 1013.51 1013.52 1013.47 1013.37 1013.26 1013.15 1013.09 1013.10 1013.20 1013.42 1013.74 1014.18 1014.71 1015.30 1015.92 1016.54 1017.13 1017.64 1018.06 1018.38 1018.59 1018.70
1004.56 1005.19 1005.83 1006.45 1007.04 1007.58 1008.06 1008.49 1008.89 1009.27 1009.65 1010.05 1010.46 1010.90 1011.36 1011.82 1012.29 1012.72 1013.12 1013.45 1013.71 1013.89 1013.99 1014.01 1013.99 1013.93 1013.85 1013.81 1013.81 1013.88 1014.05 1014.32 1014.68 1015.14 1015.67 1016.25 1016.84 1017.41 1017.93 1018.39 1018.75 1019.01 1019.17 1019.25
1004.21 1004.96 1005.71 1006.42 1007.08 1007.68 1008.22 1008.70 1009.14 1009.56 1009.98 1010.41 1010.86 1011.33 1011.81 1012.30 1012.77 1013.21 1013.60 1013.93 1014.18 1014.34 1014.43 1014.46 1014.44 1014.40 1014.36 1014.36 1014.41 1014.53 1014.75 1015.05 1015.45 1015.91 1016.44 1016.99 1017.53 1018.04 1018.50 1018.88 1019.18 1019.39 1019.50 1019.55
1003.95 1004.78 1005.60 1006.37 1007.08 1007.73 1008.31 1008.84 1009.34 1009.81 1010.29 1010.77 1011.27 1011.79 1012.32 1012.83 1013.33 1013.77 1014.16 1014.47 1014.69 1014.84 1014.90 1014.92 1014.89 1014.85 1014.83 1014.85 1014.93 1015.09 1015.33 1015.66 1016.06 1016.53 1017.03 1017.54 1018.04 1018.49 1018.88 1019.20 1019.43 1019.59 1019.67 1019.69
1004.01 1004.88 1005.73 1006.53 1007.26 1007.94 1008.55 1009.12 1009.66 1010.19 1010.72 1011.26 1011.82 1012.39 1012.95 1013.50 1014.00 1014.44 1014.81 1015.10 1015.29 1015.40 1015.44 1015.42 1015.38 1015.33 1015.32 1015.35 1015.45 1015.62 1015.88 1016.22 1016.62 1017.06 1017.53 1018.00 1018.44 1018.84 1019.17 1019.43 1019.62 1019.74 1019.79 1019.80
1004.51 1005.38 1006.22 1007.02 1007.75 1008.42 1009.05 1009.64 1010.21 1010.78 1011.35 1011.94 1012.54 1013.14 1013.72 1014.28 1014.78 1015.21 1015.55 1015.80 1015.96 1016.04 1016.05 1016.01 1015.95 1015.91 1015.89 1015.93 1016.04 1016.22 1016.48 1016.81 1017.19 1017.61 1018.04 1018.46 1018.84 1019.18 1019.47 1019.68 1019.84 1019.94 1019.99 1020.01
1005.46 1006.30 1007.10 1007.85 1008.56 1009.21 1009.82 1010.41 1010.99 1011.57 1012.16 1012.77 1013.38 1013.99 1014.58 1015.12 1015.60 1016.01 1016.32 1016.54 1016.67 1016.73 1016.72 1016.68 1016.62 1016.58 1016.58 1016.64 1016.76 1016.94 1017.20 1017.51 1017.86 1018.24 1018.61 1018.98 1019.31 1019.60 1019.84 1020.03 1020.17 1020.27 1020.33 1020.38
1006.72 1007.50 1008.24 1008.93 1009.58 1010.19 1010.77 1011.34 1011.91 1012.48 1013.07 1013.67 1014.28 1014.87 1015.43 1015.94 1016.40 1016.77 1017.05 1017.25 1017.37 1017.42 1017.42 1017.40 1017.37 1017.36 1017.39 1017.47 1017.61 1017.80 1018.05 1018.34 1018.65 1018.97 1019.30 1019.60 1019.88 1020.12 1020.33 1020.50 1020.64 1020.75 1020.85 1020.93
1008.09 1008.78 1009.45 1010.07 1010.66 1011.22 1011.76 1012.30 1012.84 1013.39 1013.96 1014.53 1015.11 1015.66 1016.19 1016.66 1017.08 1017.42 1017.68 1017.87 1017.99 1018.06 1018.10 1018.12 1018.15 1018.20 1018.28 1018.40 1018.57 1018.77 1019.01 1019.27 1019.54 1019.81 1020.07 1020.32 1020.54 1020.74 1020.92 1021.08 1021.23 1021.36 1021.50 1021.63
1009.35 1009.95 1010.54 1011.09 1011.61 1012.12 1012.63 1013.14 1013.66 1014.18 1014.72 1015.27 1015.80 1016.32 1016.79 1017.23 1017.60 1017.92 1018.17 1018.36 1018.51 1018.62 1018.72 1018.81 1018.91 1019.04 1019.19 1019.37 1019.57 1019.79 1020.03 1020.26 1020.49 1020.70 1020.90 1021.08 1021.25 1021.41 1021.57 1021.72 1021.88 1022.05 1022.22 1022.40
1010.34 1010.86 1011.36 1011.85 1012.33 1012.81 1013.29 1013.78 1014.29 1014.80 1015.32 1015.83 1016.34 1016.81 1017.25 1017.64 1017.99 1018.28 1018.53 1018.74 1018.92 1019.08 1019.25 1019.42 1019.61 1019.82 1020.05 1020.29 1020.53 1020.78 1021.01 1021.22 1021.41 1021.58 1021.72 1021.85 1021.97 1022.09 1022.23 1022.38 1022.55 1022.74 1022.95 1023.16
1011.01 1011.45 1011.89 1012.34 1012.79 1013.26 1013.74 1014.23 1014.74 1015.26 1015.78 1016.28 1016.76 1017.21 1017.61 1017.98 1018.29 1018.57 1018.82 1019.04 1019.26 1019.47 1019.70 1019.95 1020.22 1020.51 1020.81 1021.11 1021.40 1021.67 1021.90 1022.10 1022.26 1022.39 1022.48 1022.57 1022.65 1022.74 1022.85 1023.00 1023.18 1023.39 1023.62 1023.86
Thickness
5745 5756 5763 5762 5768 5778 5777 5779 5775 5778 5777 5780 5787 5799 5807 5809 5809 5808 5805 5804 5802 5799 5799 5798 5797 5794 5792 5789 5786 5783 5778 5774 5772 5770 5768 5765 5762 5760 5758 5756 5754 5752 5750 5748
5732 5748 5754 5757 5767 5775 5780 5784 5785 5785 5782 5798 5798 5802 5803 5803 5802 5799 5797 5797 5798 5796 5794 5792 5791 5790 5788 5785 5782 5780 5775 5772 5771 5768 5765 5762 5760 5758 5755 5753 5751 5749 5747 5746
5718 5737 5740 5738 5761 5771 5777 5786 5785 5777 5784 5794 5791 5792 5795 5797 5797 5794 5794 5793 5792 5792 5790 5789 5789 5787 5783 5781 5779 5775 5772 5770 5767 5764 5761 5759 5758 5754 5751 5749 5748 5746 5745 5745
5713 5720 5708 5748 5784 5785 5780 5783 5789 5788 5789 5791 5790 5791 5797 5797 5791 5788 5789 5788 5788 5788 5787 5787 5786 5784 5781 5778 5774 5771 5768 5765 5763 5760 5757 5756 5754 5751 5748 5747 5745 5744 5743 5742
5704 5703 5717 5749 5771 5776 5770 5766 5781 5780 5781 5785 5787 5784 5782 5789 5789 5786 5785 5785 5784 5784 5783 5781 5780 5779 5776 5772 5769 5766 5763 5761 5760 5758 5755 5752 5749 5747 5746 5744 5742 5741 5740 5738
5697 5695 5698 5731 5762 5777 5770 5750 5774 5777 5774 5776 5776 5760 5761 5778 5783 5781 5781 5780 5779 5779 5778 5774 5774 5774 5769 5765 5763 5761 5760 5759 5758 5755 5752 5748 5746 5745 5744 5742 5739 5738 5737 5736
5690 5695 5711 5737 5756 5764 5738 5738 5766 5773 5771 5770 5765 5763 5766 5773 5774 5774 5773 5773 5773 5771 5768 5767 5768 5767 5762 5759 5758 5758 5758 5756 5754 5751 5748 5746 5744 5742 5740 5738 5735 5734 5732 5731
5686 5686 5697 5732 5743 5738 5739 5756 5760 5762 5764 5763 5761 5762 5764 5765 5763 5763 5763 5764 5764 5761 5760 5761 5761 5759 5755 5753 5755 5756 5754 5751 5748 5746 5745 5743 5739 5738 5736 5733 5730 5728 5726 5725
5688 5691 5707 5722 5728 5736 5746 5747 5751 5752 5754 5755 5753 5751 5752 5753 5752 5753 5754 5755 5755 5753 5752 5753 5753 5752 5749 5749 5751 5749 5747 5744 5742 5740 5739 5738 5735 5732 5730 5728 5726 5724 5722 5720
5684 5692 5702 5712 5724 5733 5739 5741 5745 5745 5746 5746 5743 5743 5742 5743 5743 5744 5745 5745 5745 5744 5742 5742 5745 5745 5744 5745 5744 5742 5739 5737 5735 5733 5731 5729 5728 5726 5723 5722 5721 5719 5718 5716
5676 5685 5694 5703 5713 5720 5728 5733 5733 5735 5738 5738 5736 5734 5734 5734 5735 5735 5735 5735 5735 5734 5733 5734 5735 5736 5738 5738 5737 5734 5732 5730 5728 5726 5724 5720 5717 5714 5714 5711 5713 5712 5712 5711
5667 5679 5683 5690 5706 5713 5716 5719 5723 5724 5726 5728 5728 5726 5726 5724 5725 5725 5725 5725 5725 5724 5724 5724 5726 5727 5729 5730 5729 5727 5724 5722 5721 5719 5717 5714 5710 5705 5702 5702 5701 5701 5701 5700
5670 5679 5681 5687 5696 5704 5707 5710 5712 5715 5715 5715 5716 5716 5715 5714 5715 5715 5715 5715 5714 5714 5715 5715 5716 5716 5718 5720 5720 5719 5716 5715 5714 5713 5711 5708 5705 5701 5696 5691 5689 5688 5687 5687
5666 5669 5669 5675 5683 5692 5697 5700 5701 5703 5704 5704 5704 5705 5704 5703 5704 5704 5704 5705 5706 5706 5706 5706 5707 5707 5709 5711 5712 5710 5709 5708 5706 5705 5703 5701 5699 5696 5693 5689 5683 5678 5675 5673
5658 5661 5662 5669 5676 5681 5685 5688 5688 5689 5691 5691 5692 5692 5692 5691 5691 5692 5694 5695 5695 5695 5694 5695 5696 5696 5700 5702 5702 5701 5700 5700 5699 5697 5695 5692 5690 5687 5684 5679 5675 5670 5667 5663
5649 5652 5656 5659 5664 5668 5672 5674 5675 5676 5679 5680 5680 5681 5681 5681 5682 5682 5683 5684 5683 5681 5682 5684 5685 5687 5690 5691 5692 5690 5689 5687 5688 5687 5685 5682 5680 5677 5673 5668 5664 5660 5656 5653
5638 5641 5645 5649 5653 5657 5661 5663 5665 5666 5668 5669 5670 5671 5671 5671 5670 5670 5670 5672 5672 5672 5672 5674 5675 5678 5680 5682 5682 5681 5679 5677 5676 5676 5674 5671 5668 5665 5661 5657 5653 5648 5643 5639
5634 5637 5640 5642 5645 5647 5650 5653 5655 5657 5658 5659 5661 5661 5661 5659 5658 5658 5659 5660 5661 5662 5662 5664 5667 5669 5671 5671 5672 5672 5670 5668 5666 5664 5661 5659 5656 5653 5649 5645 5641 5637 5632 5629
5627 5629 5632 5634 5637 5640 5642 5643 5645 5647 5648 5649 5649 5649 5649 5650 5650 5649 5650 5650 5650 5650 5651 5655 5657 5660 5660 5660 5660 5661 5660 5657 5654 5652 5650 5646 5645 5642 5638 5635 5631 5626 5622 5618
5618 5621 5623 5626 5629 5631 5633 5634 5636 5637 5638 5639 5639 5639 5640 5640 5641 5641 5641 5640 5640 5641 5643 5645 5648 5649 5650 5650 5650 5651 5649 5647 5644 5641 5639 5637 5633 5630 5626 5623 5619 5615 5611 5607
5609 5612 5614 5617 5619 5622 5624 5625 5626 5626 5627 5629 5629 5629 5630 5630 5631 5632 5632 5630 5629 5631 5634 5635 5637 5637 5639 5638 5639 5639 5637 5635 5632 5630 5627 5624 5621 5617 5613 5610 5607 5603 5600 5596
5602 5605 5607 5609 5610 5611 5613 5615 5617 5617 5618 5619 5620 5621 5621 5621 5621 5622 5621 5620 5620 5621 5624 5625 5625 5624 5625 5627 5627 5626 5624 5622 5619 5616 5614 5611 5608 5604 5600 5597 5594 5591 5587 5583
5595 5597 5598 5600 5601 5603 5605 5606 5608 5609 5609 5611 5612 5613 5613 5614 5614 5614 5611 5611 5613 5612 5614 5612 5611 5612 5613 5616 5614 5613 5611 5609 5606 5604 5601 5598 5595 5592 5588 5585 5582 5578 5574 5570
5588 5589 5591 5593 5595 5596 5596 5598 5600 5601 5602 5603 5603 5604 5605 5605 5605 5605 5603 5601 5602 5603 5603 5600 5601 5603 5604 5605 5603 5601 5598 5596 5594 5592 5590 5587 5584 5581 5576 5573 5569 5565 5561 5556
5582 5584 5585 5586 5587 5588 5590 5592 5593 5594 5595 5595 5596 5597 5598 5598 5597 5596 5595 5593 5592 5595 5594 5592 5593 5594 5595 5593 5591 5589 5587 5585 5583 5581 5578 5575 5572 5568 5563 5559 5555 5551 5547 5543
5577 5578 5579 5581 5582 5584 5586 5587 5588 5588 5589 5589 5588 5589 5589 5589 5588 5588 5587 5587 5587 5586 5587 5587 5586 5586 5585 5583 5581 5578 5576 5574 5572 5569 5565 5562 5558 5554 5550 5545 5541 5538 5534 5529
5570 5572 5574 5575 5576 5579 5580 5581 5581 5581 5582 5583 5582 5582 5582 5582 5582 5582 5582 5582 5581 5581 5580 5579 5578 5576 5574 5572 5570 5568 5565 5562 5559 5556 5553 5549 5545 5541 5537 5533 5529 5524 5519 5515